Red Oak, IA

11:53 AM CST on December 16, 2017 (GMT -0600)
Red Oak Municipal

Weather History for KRDK - May, 2014

Change the Weather History Date:

Tuesday, May 6, 2014

  Actual Average Record
Temperature  
Mean Temperature 66 °F -  
Max Temperature 80 °F 71 °F 91 °F (1955)
Min Temperature 51 °F 48 °F 30 °F (1992)
Growing Degree Days 16 (Base 50)    
Moisture  
Dew Point 52 °F    
Average Humidity 54    
Maximum Humidity 67    
Minimum Humidity 44    
Precipitation  
Precipitation 0.00 in - - ()
Sea Level Pressure  
Sea Level Pressure 29.63 in    
Wind  
Wind Speed 12 mph (ESE)    
Max Wind Speed 18 mph    
Max Gust Speed 30 mph    
Visibility 10 miles    
Events      
Averages and records for this station are not official NWS values.
T = Trace of Precipitation, MM = Missing Value Source: NWS Daily Summary

Daily Weather History Graph

Daily Weather History Graph

Search for Another Location

Airport or City:

Trip Planner

Search our weather history database for the weather conditions in past years. The results will help you decide how hot, cold, wet, or windy it might be!

Date:

Astronomy

May. 06, 2014 Rise Set
Actual Time 6:12 AM CDT 8:23 PM CDT
Civil Twilight 5:42 AM CDT 8:53 PM CDT
Nautical Twilight 5:05 AM CDT 9:30 PM CDT
Astronomical Twilight 4:24 AM CDT 10:12 PM CDT
Moon 12:30 PM CDT (5/6) 1:42 AM CDT (5/6)
Length of Visible Light 15h 11m
Length of Day
14h 10m
Waxing Crescent, 46% of the Moon is Illuminated
May 6
Waxing Crescent
May 6
First Quarter
May 14
Full
May 21
Last Quarter
May 28
New

Hourly Weather History & Observations

Time (CDT) Temp. Heat Index Dew Point Humidity Pressure Visibility Wind Dir Wind Speed Gust Speed Precip Events Conditions
12:15 AM 59.0 °F - 44.6 °F 59% 29.80 in 10.0 mi East 8.1 mph - N/A   Clear
12:35 AM 59.0 °F - 44.6 °F 59% 29.79 in 10.0 mi East 6.9 mph 17.3 mph N/A   Clear
12:55 AM 59.0 °F - 42.8 °F 55% 29.79 in 10.0 mi East 11.5 mph - N/A   Clear
1:15 AM 59.0 °F - 42.8 °F 55% 29.79 in 10.0 mi East 10.4 mph - N/A   Clear
1:35 AM 59.0 °F - 42.8 °F 55% 29.79 in 10.0 mi East 6.9 mph 13.8 mph N/A   Clear
1:55 AM 57.2 °F - 42.8 °F 59% 29.78 in 10.0 mi East 11.5 mph - N/A   Clear
2:15 AM 57.2 °F - 42.8 °F 59% 29.77 in 10.0 mi East 13.8 mph 19.6 mph N/A   Clear
2:35 AM 57.2 °F - 42.8 °F 59% 29.76 in 10.0 mi East 13.8 mph - N/A   Clear
6:55 AM 51.8 °F - 39.2 °F 62% 29.72 in 10.0 mi East 9.2 mph - N/A   Clear
7:15 AM 51.8 °F - 41.0 °F 67% 29.72 in 10.0 mi ESE 10.4 mph 17.3 mph N/A   Clear
7:35 AM 53.6 °F - 41.0 °F 62% 29.72 in 10.0 mi East 10.4 mph - N/A   Clear
7:55 AM 55.4 °F - 41.0 °F 58% 29.73 in 10.0 mi East 11.5 mph 24.2 mph N/A   Clear
8:15 AM 55.4 °F - 41.0 °F 58% 29.72 in 10.0 mi Variable 6.9 mph 15.0 mph N/A   Clear
9:15 AM 59.0 °F - 42.8 °F 55% 29.71 in 10.0 mi ESE 13.8 mph 21.9 mph N/A   Clear
9:35 AM 60.8 °F - 44.6 °F 55% 29.71 in 10.0 mi ESE 17.3 mph - N/A   Clear
9:55 AM 60.8 °F - 44.6 °F 55% 29.71 in 10.0 mi ESE 11.5 mph 20.7 mph N/A   Clear
10:15 AM 62.6 °F - 46.4 °F 55% 29.70 in 10.0 mi ESE 13.8 mph 20.7 mph N/A   Clear
10:35 AM 64.4 °F - 46.4 °F 52% 29.69 in 10.0 mi ESE 16.1 mph - N/A   Clear
10:55 AM 66.2 °F - 48.2 °F 52% 29.68 in 10.0 mi ESE 15.0 mph - N/A   Clear
11:15 AM 68.0 °F - 48.2 °F 49% 29.68 in 10.0 mi ESE 13.8 mph 21.9 mph N/A   Clear
11:35 AM 68.0 °F - 48.2 °F 49% 29.67 in 10.0 mi East 15.0 mph - N/A   Clear
11:55 AM 69.8 °F - 50.0 °F 49% 29.67 in 10.0 mi ESE 9.2 mph 23.0 mph N/A   Clear
12:15 PM 71.6 °F - 51.8 °F 50% 29.65 in 10.0 mi ESE 16.1 mph - N/A   Clear
12:35 PM 71.6 °F - 51.8 °F 50% 29.66 in 10.0 mi East 13.8 mph 21.9 mph N/A   Clear
12:55 PM 73.4 °F - 53.6 °F 50% 29.65 in 10.0 mi ESE 12.7 mph 19.6 mph N/A   Clear
1:15 PM 73.4 °F - 51.8 °F 47% 29.64 in 10.0 mi ESE 15.0 mph - N/A   Clear
1:35 PM 73.4 °F - 53.6 °F 50% 29.62 in 10.0 mi ESE 15.0 mph 23.0 mph N/A   Clear
1:55 PM 75.2 °F - 53.6 °F 47% 29.61 in 10.0 mi ESE 16.1 mph 24.2 mph N/A   Clear
2:15 PM 75.2 °F - 53.6 °F 47% 29.61 in 10.0 mi ESE 16.1 mph 26.5 mph N/A   Clear
2:35 PM 75.2 °F - 53.6 °F 47% 29.61 in 10.0 mi ESE 17.3 mph 27.6 mph N/A   Clear
3:15 PM 77.0 °F - 55.4 °F 47% 29.59 in 10.0 mi SE 17.3 mph 29.9 mph N/A   Clear
3:35 PM 77.0 °F - 55.4 °F 47% 29.58 in 10.0 mi ESE 18.4 mph 27.6 mph N/A   Clear
3:55 PM 78.8 °F - 55.4 °F 44% 29.57 in 10.0 mi SE 18.4 mph 27.6 mph N/A   Clear
4:15 PM 78.8 °F - 55.4 °F 44% 29.56 in 10.0 mi SE 17.3 mph 24.2 mph N/A   Clear
4:35 PM 78.8 °F - 57.2 °F 47% 29.56 in 10.0 mi SE 15.0 mph 24.2 mph N/A   Clear
4:55 PM 77.0 °F - 57.2 °F 50% 29.55 in 10.0 mi SE 15.0 mph 21.9 mph N/A   Clear
5:15 PM 78.8 °F - 59.0 °F 51% 29.55 in 10.0 mi SE 12.7 mph 19.6 mph N/A   Clear
5:35 PM 78.8 °F - 59.0 °F 51% 29.54 in 10.0 mi ESE 15.0 mph - N/A   Clear
5:55 PM 78.8 °F - 59.0 °F 51% 29.54 in 10.0 mi SE 13.8 mph - N/A   Clear
6:15 PM 78.8 °F - 59.0 °F 51% 29.54 in 10.0 mi SE 11.5 mph - N/A   Clear
6:35 PM 78.8 °F - 59.0 °F 51% 29.54 in 10.0 mi SE 15.0 mph - N/A   Clear
6:55 PM 80.6 °F 81.5 °F 60.8 °F 51% 29.54 in 10.0 mi ESE 12.7 mph - N/A   Clear
7:15 PM 78.8 °F - 60.8 °F 54% 29.53 in 10.0 mi ESE 13.8 mph - N/A   Clear
7:35 PM 78.8 °F - 59.0 °F 51% 29.53 in 10.0 mi ESE 15.0 mph - N/A   Clear
7:55 PM 77.0 °F - 59.0 °F 54% 29.53 in 10.0 mi East 11.5 mph - N/A   Clear
8:15 PM 77.0 °F - 59.0 °F 54% 29.54 in 10.0 mi East 10.4 mph - N/A   Clear
8:35 PM 75.2 °F - 59.0 °F 57% 29.54 in 10.0 mi East 9.2 mph - N/A   Clear
8:55 PM 73.4 °F - 59.0 °F 61% 29.55 in 10.0 mi East 13.8 mph - N/A   Clear
9:15 PM 73.4 °F - 59.0 °F 61% 29.56 in 10.0 mi East 10.4 mph - N/A   Clear
9:35 PM 71.6 °F - 59.0 °F 64% 29.56 in 10.0 mi ENE 12.7 mph - N/A   Clear
9:55 PM 71.6 °F - 59.0 °F 64% 29.56 in 10.0 mi East 12.7 mph - N/A   Clear
10:15 PM 71.6 °F - 59.0 °F 64% 29.56 in 10.0 mi East 13.8 mph - N/A   Clear
10:55 PM 69.8 °F - 57.2 °F 64% 29.56 in 10.0 mi East 16.1 mph - N/A   Clear
11:15 PM 69.8 °F - 57.2 °F 64% 29.57 in 10.0 mi East 13.8 mph - N/A   Clear
11:35 PM 69.8 °F - 57.2 °F 64% 29.57 in 10.0 mi East 12.7 mph 18.4 mph N/A   Partly Cloudy
11:55 PM 69.8 °F - 57.2 °F 64% 29.56 in 10.0 mi East 15.0 mph 20.7 mph N/A   Scattered Clouds